Kenansville, NC

11:18 AM EST on January 18, 2018 (GMT -0500)
Duplin County

Weather History for KDPL - February, 2013

Change the Weather History Date:

Thursday, February 28, 2013

  Actual Average (KOAJ) Record (KOAJ)
Temperature  
Mean Temperature 43 °F -  
Max Temperature 51 °F 58 °F 80 °F (1997)
Min Temperature 35 °F 36 °F 19 °F (2002)
Degree Days  
Heating Degree Days 22    
Moisture  
Dew Point 34 °F    
Average Humidity 69    
Maximum Humidity 98    
Minimum Humidity 46    
Precipitation  
Precipitation 0.00 in - - ()
Sea Level Pressure  
Sea Level Pressure 29.78 in    
Wind  
Wind Speed 5 mph (West)    
Max Wind Speed 13 mph    
Max Gust Speed 17 mph    
Visibility 10 miles    
Events      
Averages and records for this station are not official NWS values.
T = Trace of Precipitation, MM = Missing Value Source: NWS Daily Summary

Daily Weather History Graph

Daily Weather History Graph

Search for Another Location

Airport or City:

Trip Planner

Search our weather history database for the weather conditions in past years. The results will help you decide how hot, cold, wet, or windy it might be!

Date:

Astronomy

Feb. 28, 2013 Rise Set
Actual Time 6:42 AM EST 6:06 PM EST
Civil Twilight 6:16 AM EST 6:32 PM EST
Nautical Twilight 5:47 AM EST 7:01 PM EST
Astronomical Twilight 5:18 AM EST 7:31 PM EST
Moon 9:21 PM EST (2/28) 7:59 AM EST (2/28)
Length of Visible Light 12h 15m
Length of Day
11h 24m
Waning Gibbous, 91% of the Moon is Illuminated
Feb 28
Waning Gibbous
Mar 4
Last Quarter
Mar 11
New
Mar 19
First Quarter
Mar 27
Full

Hourly Weather History & Observations

Time (EST) Temp. Windchill Dew Point Humidity Pressure Visibility Wind Dir Wind Speed Gust Speed Precip Events Conditions
12:15 AM 42.1 °F 40.2 °F 40.1 °F 93% 29.74 in 10.0 mi SSW 3.5 mph - N/A   Clear
12:35 AM 42.1 °F - 40.1 °F 93% 29.74 in 10.0 mi Calm Calm - N/A   Clear
1:15 AM 43.3 °F - 40.3 °F 89% 29.74 in 10.0 mi Calm Calm - N/A   Clear
1:35 AM 43.5 °F - 40.3 °F 88% 29.74 in 10.0 mi Calm Calm - N/A   Clear
1:55 AM 43.7 °F 42.1 °F 40.1 °F 87% 29.74 in 10.0 mi SW 3.5 mph - N/A   Clear
2:15 AM 42.4 °F 40.7 °F 39.9 °F 91% 29.74 in 10.0 mi SW 3.5 mph - N/A   Clear
2:35 AM 42.1 °F 37.7 °F 39.7 °F 91% 29.74 in 10.0 mi SW 6.9 mph - N/A   Clear
2:55 AM 43.0 °F 37.7 °F 39.7 °F 88% 29.73 in 10.0 mi SW 9.2 mph - N/A   Clear
3:15 AM 43.9 °F 38.8 °F 39.7 °F 85% 29.73 in 10.0 mi SW 9.2 mph - N/A   Clear
3:35 AM 43.9 °F 38.3 °F 39.7 °F 85% 29.73 in 10.0 mi WSW 10.4 mph - N/A   Clear
3:55 AM 43.2 °F 39.0 °F 39.4 °F 86% 29.73 in 10.0 mi SW 6.9 mph - N/A   Clear
4:15 AM 43.5 °F 39.4 °F 39.4 °F 85% 29.74 in 10.0 mi WSW 6.9 mph - N/A   Clear
4:35 AM 42.8 °F 39.3 °F 38.8 °F 86% 29.75 in 10.0 mi WSW 5.8 mph - N/A   Clear
4:55 AM 40.8 °F 36.9 °F 38.3 °F 91% 29.75 in 10.0 mi SW 5.8 mph - N/A   Clear
5:15 AM 40.1 °F 38.0 °F 38.1 °F 93% 29.76 in 10.0 mi SW 3.5 mph - N/A   Clear
5:35 AM 39.6 °F 36.3 °F 37.6 °F 93% 29.76 in 10.0 mi SW 4.6 mph - N/A   Clear
5:55 AM 38.5 °F 35.0 °F 37.4 °F 96% 29.76 in 10.0 mi SW 4.6 mph - N/A   Clear
6:15 AM 37.8 °F 34.2 °F 36.7 °F 96% 29.76 in 10.0 mi SW 4.6 mph - N/A   Clear
6:55 AM 36.7 °F 32.9 °F 36.1 °F 98% 29.77 in 7.0 mi SW 4.6 mph - N/A   Clear
7:35 AM 39.4 °F - 38.1 °F 95% 29.78 in 10.0 mi Calm Calm - N/A   Mostly Cloudy
7:55 AM 42.6 °F 40.9 °F 40.6 °F 93% 29.78 in 10.0 mi SW 3.5 mph - N/A   Mostly Cloudy
8:15 AM 43.7 °F 42.1 °F 40.3 °F 88% 29.79 in 10.0 mi SW 3.5 mph - N/A   Overcast
8:35 AM 45.3 °F 44.0 °F 41.0 °F 85% 29.79 in 10.0 mi WSW 3.5 mph - N/A   Mostly Cloudy
8:55 AM 46.4 °F 41.9 °F 41.2 °F 82% 29.79 in 10.0 mi WSW 9.2 mph - N/A   Mostly Cloudy
9:15 AM 46.9 °F - 40.3 °F 78% 29.79 in 10.0 mi West 5.8 mph - N/A   Overcast
9:35 AM 47.8 °F - 39.2 °F 72% 29.78 in 10.0 mi West 3.5 mph - N/A   Mostly Cloudy
9:55 AM 48.2 °F - 39.4 °F 72% 29.78 in 10.0 mi West 3.5 mph - N/A   Mostly Cloudy
10:15 AM 48.6 °F - 35.2 °F 60% 29.78 in 10.0 mi NW 5.8 mph - N/A   Overcast
10:35 AM 49.3 °F - 36.0 °F 60% 29.78 in 10.0 mi West 5.8 mph - N/A   Overcast
10:55 AM 50.2 °F - 33.6 °F 53% 29.77 in 10.0 mi NNW 6.9 mph - N/A   Mostly Cloudy
11:15 AM 50.0 °F - 31.6 °F 49% 29.78 in 10.0 mi NW 5.8 mph - N/A   Mostly Cloudy
11:35 AM 50.2 °F - 31.5 °F 49% 29.77 in 10.0 mi NNW 5.8 mph - N/A   Overcast
11:55 AM 51.1 °F - 32.0 °F 48% 29.77 in 10.0 mi NW 5.8 mph - N/A   Mostly Cloudy
12:15 PM 51.1 °F - 32.0 °F 48% 29.76 in 10.0 mi NNW 6.9 mph - N/A   Clear
12:35 PM 50.4 °F - 32.0 °F 49% 29.76 in 10.0 mi West 8.1 mph - N/A   Mostly Cloudy
12:55 PM 50.4 °F - 32.2 °F 50% 29.75 in 10.0 mi NNW 9.2 mph - N/A   Overcast
1:35 PM 50.2 °F - 31.1 °F 48% 29.75 in 10.0 mi NW 9.2 mph - N/A   Overcast
1:55 PM 49.6 °F - 29.3 °F 46% 29.75 in 10.0 mi NW 8.1 mph - N/A   Overcast
2:15 PM 50.0 °F - 29.7 °F 46% 29.74 in 10.0 mi WNW 9.2 mph 17.3 mph N/A   Overcast
2:35 PM 50.0 °F - 30.4 °F 47% 29.74 in 10.0 mi WNW 9.2 mph - N/A   Overcast
2:55 PM 50.0 °F - 30.9 °F 48% 29.75 in 10.0 mi WNW 9.2 mph - N/A   Overcast
3:15 PM 49.8 °F - 31.6 °F 50% 29.76 in 10.0 mi West 9.2 mph - N/A   Overcast
3:35 PM 49.3 °F - 30.6 °F 49% 29.76 in 10.0 mi WNW 12.7 mph 17.3 mph N/A   Overcast
3:55 PM 49.5 °F - 31.5 °F 50% 29.76 in 10.0 mi WNW 5.8 mph - N/A   Overcast
4:15 PM 49.3 °F - 31.3 °F 50% 29.76 in 10.0 mi West 9.2 mph - N/A   Overcast
4:35 PM 49.3 °F - 31.5 °F 50% 29.77 in 10.0 mi West 8.1 mph - N/A   Overcast
4:55 PM 48.9 °F - 31.8 °F 52% 29.77 in 10.0 mi WNW 6.9 mph - N/A   Mostly Cloudy
5:15 PM 48.6 °F - 32.0 °F 53% 29.78 in 10.0 mi West 8.1 mph - N/A   Overcast
5:35 PM 49.1 °F - 30.6 °F 49% 29.79 in 10.0 mi West 8.1 mph - N/A   Mostly Cloudy
5:55 PM 47.5 °F - 28.2 °F 47% 29.79 in 10.0 mi West 9.2 mph - N/A   Scattered Clouds
6:15 PM 47.1 °F - 28.8 °F 49% 29.80 in 10.0 mi West 6.9 mph - N/A   Mostly Cloudy
6:35 PM 46.4 °F 44.3 °F 29.3 °F 51% 29.81 in 10.0 mi West 4.6 mph - N/A   Overcast
6:55 PM 46.2 °F 44.1 °F 29.8 °F 53% 29.82 in 10.0 mi West 4.6 mph - N/A   Mostly Cloudy
7:15 PM 45.5 °F 43.2 °F 29.8 °F 54% 29.82 in 10.0 mi West 4.6 mph - N/A   Mostly Cloudy
7:35 PM 44.6 °F 43.1 °F 30.0 °F 57% 29.83 in 10.0 mi WSW 3.5 mph - N/A   Scattered Clouds
7:55 PM 43.5 °F 40.1 °F 29.8 °F 59% 29.83 in 10.0 mi West 5.8 mph - N/A   Scattered Clouds
8:15 PM 41.7 °F 38.8 °F 30.0 °F 63% 29.83 in 10.0 mi West 4.6 mph - N/A   Clear
8:35 PM 40.1 °F 38.0 °F 30.7 °F 69% 29.83 in 10.0 mi West 3.5 mph - N/A   Clear
8:55 PM 36.7 °F - 32.2 °F 84% 29.84 in 10.0 mi Calm Calm - N/A   Clear
9:15 PM 38.3 °F 35.9 °F 30.7 °F 74% 29.84 in 10.0 mi West 3.5 mph - N/A   Clear
9:35 PM 35.2 °F 31.2 °F 32.2 °F 89% 29.85 in 10.0 mi WSW 4.6 mph - N/A   Clear
9:55 PM 39.0 °F 36.8 °F 29.7 °F 69% 29.85 in 10.0 mi West 3.5 mph - N/A   Clear
10:15 PM 41.0 °F 38.0 °F 28.6 °F 61% 29.86 in 10.0 mi West 4.6 mph - N/A   Clear
10:35 PM 41.2 °F 37.3 °F 28.2 °F 60% 29.86 in 10.0 mi West 5.8 mph - N/A   Clear
11:15 PM 40.3 °F - 28.0 °F 62% 29.85 in 10.0 mi Calm Calm - N/A   Clear
11:35 PM 39.2 °F - 28.0 °F 64% 29.86 in 10.0 mi Calm Calm - N/A   Clear
11:55 PM 36.3 °F 33.7 °F 28.9 °F 75% 29.85 in 10.0 mi West 3.5 mph - N/A   Clear